Indianapolis, IN

4:52 AM EDT on September 15, 2019 (GMT -0400)
Indianapolis International

Weather History for KIND - July, 2019

Change the Weather History Date:

Friday, July 12, 2019

  Actual Average Record
Temperature  
Mean Temperature 74 °F 76 °F  
Max Temperature 86 °F 85 °F 103 °F (1936)
Min Temperature 62 °F 66 °F 53 °F (1975)
Degree Days  
Heating Degree Days 0 0  
Month to date heating degree days 0 0  
Since 1 June heating degree days 9 16  
Since 1 July heating degree days 0 0  
Cooling Degree Days 9 11  
Month to date cooling degree days 173 129  
Year to date cooling degree days 487 439  
Since 1 June cooling degree days 376 355  
Growing Degree Days 24 (Base 50)    
Moisture  
Dew Point 54 °F    
Average Humidity 54    
Maximum Humidity 78    
Minimum Humidity 30    
Precipitation  
Precipitation 0.00 in 0.16 in 2.70 in (1876)
Month to date precipitation 0.84 1.89  
Year to date precipitation 29.99 23.54  
Snow  
Snow 0.00 in 0.00 in 0.00 in ()
Month to date snowfall 0.0 0.0  
Since 1 June snowfall 0.0 0.0  
Since 1 July snowfall 0.0 0.0  
Snow Depth 0.00 in    
Sea Level Pressure  
Sea Level Pressure 29.96 in    
Wind  
Wind Speed 7 mph (North)    
Max Wind Speed 14 mph    
Max Gust Speed 20 mph    
Visibility 10 miles    
Events      
T = Trace of Precipitation, MM = Missing Value Source: NWS Daily Summary

Daily Weather History Graph

Daily Weather History Graph

Search for Another Location

Airport or City:

Astronomy

Jul. 12, 2019 Rise Set
Actual Time 6:27 AM EDT 9:13 PM EDT
Civil Twilight 5:55 AM EDT 9:45 PM EDT
Nautical Twilight 5:15 AM EDT 10:25 PM EDT
Astronomical Twilight 4:29 AM EDT 11:11 PM EDT
Moon 5:32 PM EDT (7/12) 3:10 AM EDT (7/12)
Length of Visible Light 15h 50m
Length of Day
14h 46m
Waxing Gibbous, 82% of the Moon is Illuminated
Jul 12
Waxing Gibbous
Jul 16
Full
Jul 24
Last Quarter
Jul 31
New
Aug 7
First Quarter

Hourly Weather History & Observations

Time (EDT) Temp. Heat Index Dew Point Humidity Pressure Visibility Wind Dir Wind Speed Gust Speed Precip Events Conditions
12:54 AM 71.1 °F - 57.9 °F 63% 29.91 in 10.0 mi North 11.5 mph - N/A   Clear
1:54 AM 68.0 °F - 57.9 °F 70% 29.91 in 10.0 mi NNW 8.1 mph - N/A   Clear
2:54 AM 66.0 °F - 57.0 °F 73% 29.91 in 10.0 mi NNW 8.1 mph - N/A   Clear
3:54 AM 66.0 °F - 55.9 °F 70% 29.91 in 10.0 mi North 10.4 mph - N/A   Clear
5:54 AM 63.0 °F - 55.9 °F 78% 29.94 in 10.0 mi North 3.5 mph - N/A   Clear
6:54 AM 62.1 °F - 55.0 °F 78% 29.95 in 10.0 mi North 4.6 mph - N/A   Clear
7:54 AM 64.9 °F - 55.9 °F 73% 29.97 in 10.0 mi North 6.9 mph - N/A   Partly Cloudy
8:54 AM 69.1 °F - 55.9 °F 63% 29.98 in 10.0 mi NNE 8.1 mph - N/A   Partly Cloudy
9:54 AM 73.0 °F - 54.0 °F 51% 29.98 in 10.0 mi North 5.8 mph - N/A   Partly Cloudy
10:54 AM 75.9 °F - 50.0 °F 40% 29.98 in 10.0 mi North 5.8 mph - N/A   Partly Cloudy
11:54 AM 79.0 °F - 48.0 °F 34% 29.99 in 10.0 mi North 10.4 mph - N/A   Clear
12:54 PM 81.0 °F - 46.9 °F 30% 29.99 in 10.0 mi NNE 10.4 mph 19.6 mph N/A   Clear
1:54 PM 82.0 °F - 51.1 °F 34% 29.99 in 10.0 mi North 10.4 mph - N/A   Clear
2:54 PM 84.0 °F - 52.0 °F 33% 29.97 in 10.0 mi NNW 8.1 mph - N/A   Clear
3:54 PM 84.9 °F - 51.1 °F 31% 29.96 in 10.0 mi North 10.4 mph - N/A   Clear
4:54 PM 84.9 °F - 52.0 °F 32% 29.96 in 10.0 mi Variable 3.5 mph - N/A   Clear
5:54 PM 84.9 °F - 52.0 °F 32% 29.95 in 10.0 mi NNW 6.9 mph - N/A   Clear
6:54 PM 84.9 °F 83.2 °F 53.1 °F 33% 29.96 in 10.0 mi NW 8.1 mph - N/A   Clear
7:54 PM 82.9 °F 81.8 °F 53.1 °F 36% 29.96 in 10.0 mi North 6.9 mph - N/A   Clear
8:54 PM 80.1 °F 80.1 °F 55.0 °F 42% 29.95 in 10.0 mi North 5.8 mph - N/A   Clear
9:54 PM 78.1 °F - 55.0 °F 45% 29.95 in 10.0 mi North 4.6 mph - N/A   Clear
10:54 PM 72.0 °F - 57.9 °F 61% 29.96 in 10.0 mi WNW 3.5 mph - N/A   Clear
11:54 PM 72.0 °F - 57.9 °F 61% 29.96 in 10.0 mi NW 6.9 mph - N/A   Clear